Hourly Data Report for January 21, 2003

SHERBROOKE A
QUEBEC

45°26'00.000" N
71°41'00.000" W
241.40 m
7028124
71610
YSC

Download Data

Hourly Data (January 2003)
Hourly Data Report for January 21, 2003
TIME
LST
Temp Definition
°C
Dew Point Definition
°C
Rel Hum Definition
%
Precip. Amount Definition
mm

Wind Dir Definition
10's deg

Wind Spd Definition
km/h
Visibility Definition
km
Stn Press Definition
kPa
Hmdx Definition


Wind Chill Definition


Weather Definition


00:00 -16.8 -21.9 65   25 19 3.1 97.68   -26 Snow
01:00 -17.4 -22.7 63   25 24 3.9 97.76   -28  
02:00 -18.2 -23.2 65   26 22 4.8 97.82   -29  
03:00 -19.2 -25.1 60   25 26 8.0 97.88   -31  
04:00 -20.6 -26.3 60   24 15 15.0 97.92   -30  
05:00 -21.4 -27.6 57   27 19 15.0 97.94   -32  
06:00 -21.9 -27.7 59   25 15 15.0 97.96   -31  
07:00 -22.3 -27.8 61   25 17 4.8 97.98   -33  
08:00 -22.4 -28.1 60   25 19 2.4 98.00   -33 Snow
09:00 -22.8 -28.9 57   26 22 4.8 98.01   -35 Snow Showers
10:00 -22.1 -29.0 54   26 19 12.9 98.01   -33 Snow Showers
11:00 -21.8 -28.8 53   26 28 9.7 97.95   -35 Snow Showers
12:00 -21.2 -28.3 53   25 24 8.0 97.91   -33 Snow Showers
13:00 -21.0 -28.5 51   25 24 12.9 97.87   -33 Snow Showers
14:00 -21.1 -29.1 49   27 33 19.3 97.81   -35 Snow Showers
15:00 -21.5 -28.0 56   27 30 6.4 97.80   -35 Snow Showers
16:00 -22.0 -29.5 51   26 24 16.1 97.81   -34 Snow Showers
17:00 -22.3 -29.6 51   25 26 19.3 97.84   -35 Snow Showers
18:00 -22.5 -29.9 51   26 32 15.0 97.83   -36  
19:00 -22.8 -30.0 52   26 20 15.0 97.86   -34  
20:00 -23.1 -30.7 50   26 22 15.0 97.86   -35  
21:00 -23.2 -30.5 51   25 32 15.0 97.84   -37  
22:00 -23.3 -30.8 50   26 24 15.0 97.79   -36 Snow
23:00 -23.2 -30.6 51   26 32 15.0 97.76   -37 Snow

Notes on Data Quality.

Legend

  • E = Estimated
  • M = Missing
  • NA = Not Available*
  • [empty] = Indicates an unobserved value
Date modified: